Weather in Andreykovo

Russia / Smolensk Oblast     55°14′09″N   34°15′25″E
temp.,
°C
wind,
m/s
gust,
m/s
humid.,
%
clouds,
%
prec.,
mm/h
press.,
hPa
HPBL,
m
3 august, tue
tue300:00+16sw410878 0.0 1005482
03:00+14wsw4109752 0.0 1006429
06:00+14wsw489067 0.0 1008439
09:00+18w576923 0.0 1009800
12:00+21wsw57525 0.0 10101627
15:00+21w7945100 0.0 10102345
18:00+19sw595970 0.0 1010903
21:00+17sw376499 0.0 1011226
4 august, wed
wed400:00+14wsw398370 0.0 1013193
03:00+15w377893 0.0 1014197
06:00+13w249012 0.0 1015121
09:00+18wsw34697 0.0 1016620
12:00+20w466138 2.1 10151345
15:00+22nw464745 2.7 10151995
18:00+20nw246464 0.4 1016596
21:00+16ne1177100 0.9 101711
5 august, thu
thu500:00+15ene228271 0.1 101741
03:00+13sse2289100 0.1 101812
06:00+13ese2389100 0.0 101763
09:00+14ssw3692100 1.1 1017310
12:00+14se2594100 2.0 1017248
15:00+14se5129499 2.8 1016671
18:00+14se41096100 0.8 1015458
21:00+14se4998100 1.3 1014338
6 august, fri
fri600:00+14se41096100 0.7 1013389
03:00+14ese41098100 3.0 1011374
06:00+14ese4898100 5.3 1010280
09:00+15ese4899100 10.3 1008323
12:00+18se5888100 2.3 1008736
15:00+21sse3782100 3.0 1007689
18:00+22sse3680100 0.6 1006369
21:00+17sse31097100 8.6 1007306
7 august, sat
sat700:00+17sse41295100 0.2 1007470
03:00+17sse499993 0.4 1008360
06:00+16se3899100 0.0 1008238
09:00+20sse3587100 0.0 1008465
12:00+21s357796 0.0 1008696
15:00+20s4687100 0.9 1009485
18:00+19ssw3695100 2.6 1009313
21:00+17w2398100 6.6 101091